This demonstration page uses our WeatherBlox Daily Observations layout. Learn more.

38.89511, -77.03637

Hourly Observations for June 5, 2020

Temp ( °F °C ) Dew Point ( °F °C ) Humidity (%) Winds ( mph kmh ) Pressure ( in mb ) Visibility ( mi km ) Precip ( " mm )
12:13 am 00:13 Cloudy with Nearby Thunderstorms 72 22.2 69 20.6 91 91 VRB 5 7 29.91 1013 10 16.0934 0.08 2.032
12:52 am 00:52 Cloudy with Nearby Thunderstorms 73 22.8 68 20 84 84 VRB 3 6 29.94 1014 10 16.0934 0.11 2.794
1:18 am 01:18 Cloudy with Nearby Thunderstorms 72 22.2 69 20.6 91 91 NW 5 7 29.95 1014 2.5 4.02335 0.02 0.508
1:21 am 01:21 Cloudy with Heavy Thunderstorms 71 21.7 69 20.6 94 94 VRB 3 6 29.94 1014 1.5 2.41401 0.1 2.54
1:26 am 01:26 Cloudy with Light Thunderstorms 71 21.7 68 20 90 90 VRB 3 6 29.94 1014 1.75 2.816345 0.16 4.064
1:28 am 01:28 Cloudy with Light Thunderstorms 71 21.7 68 20 90 90 Calm 29.94 1014 4 6.43736 0.16 4.064
1:42 am 01:42 Cloudy with Light Rain 72 22.2 68 20 87 87 Calm 29.95 1014 7 11.26538 0.19 4.826
1:44 am 01:44 Cloudy with Nearby Thunderstorms 72 22.2 68 20 87 87 Calm 29.95 1014 7 11.26538 0.19 4.826
1:52 am 01:52 Cloudy with Nearby Thunderstorms 71 21.7 69 20.6 94 94 VRB 3 6 29.94 1014 7 11.26538 0.24 6.096
2:18 am 02:18 Mostly Cloudy 71 21.7 69 20.6 94 94 ESE 5 7 29.92 1013 7 11.26538 0.12 3.048
2:52 am 02:52 Cloudy 71 21.7 69 20.6 94 94 SSE 5 7 29.91 1013 10 16.0934 0.12 3.048
3:52 am 03:52 Cloudy 71 21.7 68 20 90 90 S 3 6 29.9 1013 10 16.0934 0 0
4:52 am 04:52 Mostly Cloudy 71 21.7 68 20 90 90 S 3 6 29.91 1013 10 16.0934 0 0
5:52 am 05:52 Mostly Cloudy 71 21.7 69 20.6 94 94 S 10 17 29.92 1013 10 16.0934 0 0
6:52 am 06:52 Cloudy 72 22.2 69 20.6 91 91 S 8 13 29.93 1014 10 16.0934 0 0
7:52 am 07:52 Mostly Cloudy 73 22.8 70 21.1 90 90 S 7 11 29.93 1014 10 16.0934 0 0
8:52 am 08:52 Mostly Cloudy 75 23.9 70 21.1 84 84 S 7 11 29.93 1014 10 16.0934 0 0
9:52 am 09:52 Mostly Cloudy 78 25.6 70 21.1 76 76 S 9 15 29.92 1013 10 16.0934 0 0
10:52 am 10:52 Mostly Cloudy 80 26.7 72 22.2 76 76 S 12 19 29.92 1013 10 16.0934 0 0
11:52 am 11:52 Mostly Cloudy 83 28.3 70 21.1 65 65 SW 8 13 29.93 1013 10 16.0934 0 0
12:52 pm 12:52 Mostly Cloudy 85 29.4 70 21.1 61 61 SSW 12 19 29.91 1013 10 16.0934 0 0
1:52 pm 13:52 Mostly Cloudy 86 30 68 20 55 55 SSW 12 19 29.88 1012 10 16.0934 0 0
2:52 pm 14:52 Mostly Cloudy 87 30.6 71 21.7 59 59 S 12 19 29.85 1011 10 16.0934 0 0
3:52 pm 15:52 Mostly Cloudy 86 30 70 21.1 59 59 S 10 17 29.83 1010 10 16.0934 0 0
4:52 pm 16:52 Mostly Cloudy 85 29.4 73 22.8 68 68 S 15 24 29.83 1010 10 16.0934 0 0
5:52 pm 17:52 Mostly Cloudy with Nearby Thunderstorms 83 28.3 72 22.2 70 70 S 10 17 29.84 1011 10 16.0934 0 0
6:07 pm 18:07 Mostly Cloudy with Nearby Thunderstorms 78 25.6 69 20.6 74 74 N 16 26 29.84 1010 10 16.0934 0 0
6:20 pm 18:20 Mostly Cloudy with Nearby Thunderstorms 78 25.6 69 20.6 74 74 N 14 22 29.85 1011 10 16.0934 0 0
6:27 pm 18:27 Mostly Cloudy with Light Thunderstorms 77 25 70 21.1 79 79 N 15 24 29.85 1011 10 16.0934 0.001 0.001
6:45 pm 18:45 Cloudy with Light Thunderstorms 75 23.9 71 21.7 88 88 N 8 13 29.87 1011 10 16.0934 0.001 0.001
6:52 pm 18:52 Cloudy with Light Thunderstorms 74 23.3 71 21.7 91 91 NE 9 15 29.86 1011 10 16.0934 0.001 0.001
6:59 pm 18:59 Cloudy with Heavy Thunderstorms 74 23.3 71 21.7 91 91 N 9 15 29.87 1011 2.5 4.02335 0.01 0.254
7:04 pm 19:04 Cloudy with Heavy Thunderstorms 73 22.8 71 21.7 94 94 N 16 26 29.86 1011 1.25 2.011675 0.15 3.81
7:08 pm 19:08 Cloudy with Heavy Thunderstorms 73 22.8 71 21.7 94 94 NNE 16 26 29.86 1011 0.75 1.207005 0.28 7.112
7:18 pm 19:18 Cloudy with Heavy Thunderstorms 72 22.2 71 21.7 97 97 NNW 7 11 29.87 1011 4 6.43736 0.46 11.684
7:24 pm 19:24 Cloudy with Heavy Thunderstorms 72 22.2 71 21.7 97 97 WNW 6 9 29.88 1012 1 1.60934 0.55 13.97
7:29 pm 19:29 Cloudy with Heavy Thunderstorms 73 22.8 71 21.7 94 94 W 3 6 29.88 1012 0.75 1.207005 0.64 16.256
7:44 pm 19:44 Cloudy with Thunderstorms 72 22.2 71 21.7 97 97 NE 3 6 29.88 1012 4 6.43736 0.83 21.082
7:52 pm 19:52 Cloudy with Light Thunderstorms 73 22.8 71 21.7 94 94 ENE 6 9 29.87 1012 5 8.0467 0.86 21.844
7:59 pm 19:59 Cloudy with Thunderstorms 73 22.8 71 21.7 94 94 SE 6 9 29.88 1012 6 9.65604 0.01 0.254
8:11 pm 20:11 Cloudy with Nearby Thunderstorms 73 22.8 71 21.7 94 94 E 6 9 29.87 1011 6 9.65604 0.03 0.762
8:16 pm 20:16 Cloudy with Light Rain 73 22.8 71 21.7 94 94 E 5 7 29.86 1011 8 12.87472 0.03 0.762
8:52 pm 20:52 Cloudy 73 22.8 71 21.7 94 94 S 3 6 29.87 1011 10 16.0934 0.04 1.016
9:52 pm 21:52 Cloudy 73 22.8 71 21.7 94 94 Calm 29.89 1012 10 16.0934 0 0
10:52 pm 22:52 Cloudy 74 23.3 71 21.7 91 91 SSW 3 6 29.88 1012 10 16.0934 0 0
11:01 pm 23:01 Cloudy 74 23.3 71 21.7 91 91 SW 5 7 29.89 1012 10 16.0934 0 0
11:52 pm 23:52 Cloudy 74 23.3 71 21.7 91 91 WNW 3 6 29.88 1012 10 16.0934 0 0

Powered by AerisWeather